Time,TemperatureF,DewpointF,PressureIn,WindDirection,WindDirectionDegrees,WindSpeedMPH,WindSpeedGustMPH,Humidity,HourlyPrecipIn,Conditions,Clouds,dailyrainin,SoftwareType,DateUTC
2013-07-07 00:14:00,57.3,55.0,29.93,East,79,0.0,1.0,90,0.00,,,0.00,weatherlink.com 1.10,2013-07-07 07:14:00,
2013-07-07 00:29:00,57.2,54.0,29.93,ENE,74,1.0,2.0,90,0.00,,,0.00,weatherlink.com 1.10,2013-07-07 07:29:00,
2013-07-07 00:44:00,57.2,54.0,29.93,NE,38,0.0,2.0,90,0.00,,,0.00,weatherlink.com 1.10,2013-07-07 07:44:00,
2013-07-07 00:59:00,57.4,55.0,29.93,ENE,63,0.0,0.0,90,0.00,,,0.00,weatherlink.com 1.10,2013-07-07 07:59:00,
2013-07-07 01:14:00,57.7,55.0,29.93,NE,34,0.0,1.0,90,0.00,,,0.00,weatherlink.com 1.10,2013-07-07 08:14:00,
2013-07-07 01:29:00,57.7,55.0,29.93,NE,34,0.0,0.0,90,0.00,,,0.00,weatherlink.com 1.10,2013-07-07 08:29:00,
2013-07-07 01:44:00,57.8,55.0,29.93,ENE,68,0.0,1.0,90,0.00,,,0.00,weatherlink.com 1.10,2013-07-07 08:44:00,
2013-07-07 01:59:00,57.9,55.0,29.93,ENE,68,0.0,0.0,90,0.00,,,0.00,weatherlink.com 1.10,2013-07-07 08:59:00,
2013-07-07 02:14:00,58.2,56.0,29.93,ESE,103,0.0,1.0,91,0.00,,,0.00,weatherlink.com 1.10,2013-07-07 09:14:00,
2013-07-07 02:29:00,58.5,56.0,29.93,ESE,113,0.0,2.0,90,0.00,,,0.00,weatherlink.com 1.10,2013-07-07 09:29:00,
2013-07-07 02:44:00,58.5,56.0,29.93,WNW,291,0.0,2.0,90,0.00,,,0.00,weatherlink.com 1.10,2013-07-07 09:44:00,
2013-07-07 02:59:00,58.5,56.0,29.93,ENE,65,0.0,3.0,90,0.00,,,0.00,weatherlink.com 1.10,2013-07-07 09:59:00,
2013-07-07 03:14:00,58.5,56.0,29.93,NE,49,0.0,3.0,90,0.00,,,0.00,weatherlink.com 1.10,2013-07-07 10:14:00,
2013-07-07 03:29:00,58.4,56.0,29.93,NE,49,0.0,2.0,90,0.00,,,0.00,weatherlink.com 1.10,2013-07-07 10:29:00,
2013-07-07 03:45:00,58.3,55.0,29.93,NNE,31,0.0,4.0,89,0.00,,,0.00,weatherlink.com 1.10,2013-07-07 10:45:00,
2013-07-07 04:00:00,58.2,55.0,29.94,NNW,334,0.0,1.0,89,0.00,,,0.00,weatherlink.com 1.10,2013-07-07 11:00:00,
2013-07-07 04:15:00,58.1,55.0,29.94,West,274,0.0,0.0,89,0.00,,,0.00,weatherlink.com 1.10,2013-07-07 11:15:00,
2013-07-07 04:30:00,58.0,55.0,29.93,NNE,26,0.0,0.0,89,0.00,,,0.00,weatherlink.com 1.10,2013-07-07 11:30:00,
2013-07-07 04:45:00,58.0,55.0,29.93,WSW,250,0.0,0.0,89,0.00,,,0.00,weatherlink.com 1.10,2013-07-07 11:45:00,
2013-07-07 05:00:00,57.9,55.0,29.94,NE,45,0.0,1.0,89,0.00,,,0.00,weatherlink.com 1.10,2013-07-07 12:00:00,
2013-07-07 05:15:00,58.0,55.0,29.94,ENE,66,0.0,4.0,89,0.00,,,0.00,weatherlink.com 1.10,2013-07-07 12:15:00,
2013-07-07 05:30:00,58.1,55.0,29.95,NE,56,0.0,2.0,89,0.00,,,0.00,weatherlink.com 1.10,2013-07-07 12:30:00,
2013-07-07 05:45:00,58.0,55.0,29.95,NE,46,0.0,2.0,88,0.00,,,0.00,weatherlink.com 1.10,2013-07-07 12:45:00,
2013-07-07 06:00:00,58.1,55.0,29.95,NNE,25,0.0,2.0,88,0.00,,,0.00,weatherlink.com 1.10,2013-07-07 13:00:00,
2013-07-07 06:15:00,58.2,55.0,29.95,NE,34,0.0,3.0,88,0.00,,,0.00,weatherlink.com 1.10,2013-07-07 13:15:00,
2013-07-07 06:30:00,58.2,55.0,29.95,NNE,31,0.0,4.0,88,0.00,,,0.00,weatherlink.com 1.10,2013-07-07 13:30:00,
2013-07-07 06:45:00,58.4,55.0,29.95,ENE,57,0.0,2.0,89,0.00,,,0.00,weatherlink.com 1.10,2013-07-07 13:45:00,
2013-07-07 07:00:00,58.6,55.0,29.95,East,86,0.0,3.0,88,0.00,,,0.00,weatherlink.com 1.10,2013-07-07 14:00:00,
2013-07-07 07:15:00,58.6,55.0,29.96,ESE,107,1.0,4.0,88,0.00,,,0.00,weatherlink.com 1.10,2013-07-07 14:15:00,
2013-07-07 07:30:00,58.9,55.0,29.96,SW,236,1.0,2.0,88,0.00,,,0.00,weatherlink.com 1.10,2013-07-07 14:30:00,
2013-07-07 07:45:00,59.0,56.0,29.96,ENE,66,0.0,2.0,88,0.00,,,0.00,weatherlink.com 1.10,2013-07-07 14:45:00,
2013-07-07 08:00:00,59.2,56.0,29.96,North,349,1.0,2.0,88,0.00,,,0.00,weatherlink.com 1.10,2013-07-07 15:00:00,
2013-07-07 08:15:00,59.4,56.0,29.96,ESE,116,0.0,3.0,87,0.00,,,0.00,weatherlink.com 1.10,2013-07-07 15:15:00,
2013-07-07 08:30:00,59.6,56.0,29.97,North,8,2.0,6.0,86,0.00,,,0.00,weatherlink.com 1.10,2013-07-07 15:30:00,
2013-07-07 08:45:00,60.0,56.0,29.97,ESE,105,0.0,1.0,86,0.00,,,0.00,weatherlink.com 1.10,2013-07-07 15:45:00,
2013-07-07 09:00:00,60.2,56.0,29.97,ENE,59,0.0,1.0,85,0.00,,,0.00,weatherlink.com 1.10,2013-07-07 16:00:00,
2013-07-07 09:15:00,60.7,56.0,29.97,NE,46,0.0,1.0,84,0.00,,,0.00,weatherlink.com 1.10,2013-07-07 16:15:00,
2013-07-07 09:30:00,61.2,56.0,29.97,NE,53,0.0,1.0,84,0.00,,,0.00,weatherlink.com 1.10,2013-07-07 16:30:00,
2013-07-07 09:45:00,61.2,56.0,29.97,NE,46,1.0,4.0,84,0.00,,,0.00,weatherlink.com 1.10,2013-07-07 16:45:00,
2013-07-07 10:00:00,61.5,57.0,29.97,ENE,77,2.0,5.0,84,0.00,,,0.00,weatherlink.com 1.10,2013-07-07 17:00:00,
2013-07-07 10:15:00,62.5,57.0,29.97,North,4,0.0,4.0,83,0.00,,,0.00,weatherlink.com 1.10,2013-07-07 17:15:00,
2013-07-07 10:30:00,62.7,56.0,29.97,ENE,65,4.0,4.0,80,0.00,,,0.00,weatherlink.com 1.10,2013-07-07 17:30:00,
2013-07-07 10:45:00,62.9,57.0,29.97,East,79,3.0,5.0,81,0.00,,,0.00,weatherlink.com 1.10,2013-07-07 17:45:00,
2013-07-07 11:00:00,63.5,57.0,29.97,East,88,0.0,4.0,80,0.00,,,0.00,weatherlink.com 1.10,2013-07-07 18:00:00,
2013-07-07 11:15:00,63.7,57.0,29.97,West,272,1.0,3.0,78,0.00,,,0.00,weatherlink.com 1.10,2013-07-07 18:15:00,
2013-07-07 11:30:00,63.8,57.0,29.97,East,90,0.0,6.0,78,0.00,,,0.00,weatherlink.com 1.10,2013-07-07 18:30:00,
2013-07-07 11:45:00,64.5,57.0,29.97,West,277,0.0,7.0,77,0.00,,,0.00,weatherlink.com 1.10,2013-07-07 18:45:00,
2013-07-07 12:00:00,65.8,57.0,29.97,West,278,4.0,9.0,73,0.00,,,0.00,weatherlink.com 1.10,2013-07-07 19:00:00,
2013-07-07 12:15:00,66.8,57.0,29.96,SSW,204,1.0,7.0,72,0.00,,,0.00,weatherlink.com 1.10,2013-07-07 19:15:00,
2013-07-07 12:30:00,67.0,57.0,29.96,SE,143,1.0,7.0,70,0.00,,,0.00,weatherlink.com 1.10,2013-07-07 19:30:00,
2013-07-07 12:45:00,67.3,57.0,29.96,SSE,160,1.0,7.0,70,0.00,,,0.00,weatherlink.com 1.10,2013-07-07 19:45:00,
2013-07-07 13:00:00,66.4,56.0,29.96,WNW,285,2.0,8.0,70,0.00,,,0.00,weatherlink.com 1.10,2013-07-07 20:00:00,
2013-07-07 13:15:00,66.5,56.0,29.96,WNW,291,0.0,8.0,70,0.00,,,0.00,weatherlink.com 1.10,2013-07-07 20:15:00,
2013-07-07 13:30:00,68.2,58.0,29.96,NW,321,1.0,4.0,71,0.00,,,0.00,weatherlink.com 1.10,2013-07-07 20:30:00,
2013-07-07 13:45:00,67.4,58.0,29.96,NNW,345,2.0,7.0,72,0.00,,,0.00,weatherlink.com 1.10,2013-07-07 20:45:00,
2013-07-07 14:01:00,67.0,58.0,29.96,NNE,27,1.0,8.0,73,0.00,,,0.00,weatherlink.com 1.10,2013-07-07 21:01:00,
2013-07-07 14:16:00,67.1,59.0,29.96,West,275,1.0,7.0,74,0.00,,,0.00,weatherlink.com 1.10,2013-07-07 21:16:00,
2013-07-07 14:31:00,66.6,58.0,29.96,NNE,26,2.0,7.0,73,0.00,,,0.00,weatherlink.com 1.10,2013-07-07 21:31:00,
2013-07-07 14:46:00,66.6,59.0,29.96,SE,131,3.0,8.0,77,0.00,,,0.00,weatherlink.com 1.10,2013-07-07 21:46:00,
2013-07-07 15:01:00,66.9,59.0,29.95,WSW,257,1.0,8.0,76,0.00,,,0.00,weatherlink.com 1.10,2013-07-07 22:01:00,
2013-07-07 15:16:00,66.5,59.0,29.95,West,274,1.0,10.0,77,0.00,,,0.00,weatherlink.com 1.10,2013-07-07 22:16:00,
2013-07-07 15:31:00,66.4,59.0,29.95,ESE,118,2.0,11.0,77,0.00,,,0.00,weatherlink.com 1.10,2013-07-07 22:31:00,
2013-07-07 15:46:00,65.9,59.0,29.95,NNE,33,1.0,8.0,77,0.00,,,0.00,weatherlink.com 1.10,2013-07-07 22:46:00,
2013-07-07 16:01:00,65.7,58.0,29.95,ENE,72,4.0,10.0,77,0.00,,,0.00,weatherlink.com 1.10,2013-07-07 23:01:00,
2013-07-07 16:16:00,65.8,59.0,29.95,WNW,300,1.0,8.0,78,0.00,,,0.00,weatherlink.com 1.10,2013-07-07 23:16:00,
2013-07-07 16:31:00,64.2,58.0,29.95,NNW,346,2.0,11.0,79,0.00,,,0.00,weatherlink.com 1.10,2013-07-07 23:31:00,
2013-07-07 16:46:00,63.3,58.0,29.95,NNE,25,1.0,6.0,82,0.00,,,0.00,weatherlink.com 1.10,2013-07-07 23:46:00,
2013-07-07 17:01:00,65.9,59.0,29.95,NE,40,1.0,4.0,79,0.00,,,0.00,weatherlink.com 1.10,2013-07-08 00:01:00,
2013-07-07 17:16:00,66.4,59.0,29.95,NE,53,1.0,8.0,76,0.00,,,0.00,weatherlink.com 1.10,2013-07-08 00:16:00,
2013-07-07 17:31:00,66.2,59.0,29.95,WSW,252,1.0,8.0,77,0.00,,,0.00,weatherlink.com 1.10,2013-07-08 00:31:00,
2013-07-07 17:46:00,65.4,58.0,29.94,NE,46,5.0,6.0,78,0.00,,,0.00,weatherlink.com 1.10,2013-07-08 00:46:00,
2013-07-07 18:01:00,64.9,58.0,29.94,East,92,2.0,4.0,79,0.00,,,0.00,weatherlink.com 1.10,2013-07-08 01:01:00,
2013-07-07 18:16:00,64.4,57.0,29.94,West,278,2.0,6.0,78,0.00,,,0.00,weatherlink.com 1.10,2013-07-08 01:16:00,
2013-07-07 18:31:00,63.8,57.0,29.94,WNW,298,1.0,7.0,79,0.00,,,0.00,weatherlink.com 1.10,2013-07-08 01:31:00,
2013-07-07 18:46:00,64.1,57.0,29.95,ENE,68,1.0,6.0,78,0.00,,,0.00,weatherlink.com 1.10,2013-07-08 01:46:00,
2013-07-07 19:01:00,63.4,57.0,29.95,NE,56,3.0,4.0,79,0.00,,,0.00,weatherlink.com 1.10,2013-07-08 02:01:00,
2013-07-07 19:16:00,63.3,57.0,29.95,ESE,107,1.0,8.0,80,0.00,,,0.00,weatherlink.com 1.10,2013-07-08 02:16:00,
2013-07-07 19:31:00,62.2,56.0,29.95,WSW,257,1.0,7.0,80,0.00,,,0.00,weatherlink.com 1.10,2013-07-08 02:31:00,
2013-07-07 19:46:00,61.6,56.0,29.95,ESE,117,1.0,4.0,81,0.00,,,0.00,weatherlink.com 1.10,2013-07-08 02:46:00,
2013-07-07 20:01:00,61.3,55.0,29.95,West,263,1.0,7.0,81,0.00,,,0.00,weatherlink.com 1.10,2013-07-08 03:01:00,
2013-07-07 20:16:00,60.9,55.0,29.96,ESE,120,1.0,5.0,81,0.00,,,0.00,weatherlink.com 1.10,2013-07-08 03:16:00,
2013-07-07 20:31:00,60.7,55.0,29.96,East,80,3.0,6.0,82,0.00,,,0.00,weatherlink.com 1.10,2013-07-08 03:31:00,
2013-07-07 20:46:00,60.5,55.0,29.96,WNW,285,3.0,4.0,82,0.00,,,0.00,weatherlink.com 1.10,2013-07-08 03:46:00,
2013-07-07 21:01:00,60.3,55.0,29.97,ESE,110,1.0,6.0,82,0.00,,,0.00,weatherlink.com 1.10,2013-07-08 04:01:00,
2013-07-07 21:16:00,60.2,55.0,29.97,ESE,111,1.0,5.0,83,0.00,,,0.00,weatherlink.com 1.10,2013-07-08 04:16:00,
2013-07-07 21:31:00,60.1,55.0,29.97,East,91,0.0,5.0,83,0.00,,,0.00,weatherlink.com 1.10,2013-07-08 04:31:00,
2013-07-07 21:46:00,60.0,55.0,29.98,East,98,1.0,3.0,83,0.00,,,0.00,weatherlink.com 1.10,2013-07-08 04:46:00,
2013-07-07 22:01:00,59.9,55.0,29.98,SSE,153,0.0,4.0,83,0.00,,,0.00,weatherlink.com 1.10,2013-07-08 05:01:00,
2013-07-07 22:16:00,59.9,55.0,29.98,East,79,2.0,8.0,83,0.00,,,0.00,weatherlink.com 1.10,2013-07-08 05:16:00,
2013-07-07 22:31:00,59.8,55.0,29.99,NNE,23,1.0,5.0,83,0.00,,,0.00,weatherlink.com 1.10,2013-07-08 05:31:00,
2013-07-07 22:46:00,59.6,54.0,29.99,WSW,253,3.0,4.0,83,0.00,,,0.00,weatherlink.com 1.10,2013-07-08 05:46:00,
2013-07-07 23:01:00,59.5,55.0,29.99,ESE,102,1.0,5.0,84,0.00,,,0.00,weatherlink.com 1.10,2013-07-08 06:01:00,
2013-07-07 23:16:00,59.3,54.0,29.99,NNE,27,2.0,8.0,83,0.00,,,0.00,weatherlink.com 1.10,2013-07-08 06:16:00,
2013-07-07 23:31:00,59.2,54.0,29.99,WSW,256,2.0,4.0,84,0.00,,,0.00,weatherlink.com 1.10,2013-07-08 06:31:00,
2013-07-07 23:46:00,58.7,54.0,29.99,East,79,0.0,2.0,84,0.00,,,0.00,weatherlink.com 1.10,2013-07-08 06:46:00,